Weather History for Oroville, CA

Change the Weather History Date:

Tuesday, March 5, 2013

  Actual Average Record
Temperature  
Mean Temperature 55 °F -  
Max Temperature 62 °F 62 °F 76 °F (1986)
Min Temperature 48 °F 42 °F 30 °F (1961)
Degree Days  
Heating Degree Days 10    
Growing Degree Days 5 (Base 50)    
Moisture  
Dew Point 41 °F    
Average Humidity 63    
Maximum Humidity 89    
Minimum Humidity 44    
Precipitation  
Precipitation 0.25 in - - ()
Sea Level Pressure  
Sea Level Pressure 29.94 in    
Wind  
Wind Speed 14 mph (SSE)    
Max Wind Speed 23 mph    
Max Gust Speed 32 mph    
Visibility 10 miles    
Events Rain    
Averages and records for this station are not official NWS values.
T = Trace of Precipitation, MM = Missing Value Source: NWS Daily Summary

Daily Weather History Graph

Daily Weather History Graph

Search for Another Location

Airport:

Trip Planner

Search our weather history database for the weather conditions in past years. The results will help you decide how hot, cold, wet, or windy it might be!

Date:

Astronomy

Mar. 05, 2013 Rise Set
Actual Time 6:32 AM PST 6:03 PM PST
Civil Twilight 6:06 AM PST 6:30 PM PST
Nautical Twilight 5:34 AM PST 7:01 PM PST
Astronomical Twilight 5:03 AM PST 7:32 PM PST
Moon 1:49 AM PST (3/5) 11:49 AM PST (3/5)
Length of Visible Light 12h 24m
Length of Day
11h 30m
Last Quarter, 39% of the Moon is Illuminated
Mar 5
Last Quarter
Mar 11
New
Mar 19
First Quarter
Mar 27
Full
Apr 2
Last Quarter

Hourly Weather History & Observations

Time (PST) Temp. Dew Point Humidity Pressure Visibility Wind Dir Wind Speed Gust Speed Precip Events Conditions
12:53 AM 51.1 °F 46.9 °F 86% 30.02 in 10.0 mi SSE 10.4 mph - N/A   Partly Cloudy
1:53 AM 53.1 °F 44.1 °F 71% 30.02 in 10.0 mi SE 13.8 mph - N/A   Mostly Cloudy
2:53 AM 53.1 °F 42.1 °F 66% 30.01 in 10.0 mi SE 9.2 mph - N/A   Overcast
3:53 AM 52.0 °F 39.0 °F 61% 30.00 in 10.0 mi SE 11.5 mph - N/A   Mostly Cloudy
5:53 AM 48.9 °F 37.9 °F 66% 30.00 in 10.0 mi South 9.2 mph - N/A   Clear
6:53 AM 48.0 °F 39.9 °F 74% 30.01 in 10.0 mi SSE 12.7 mph - N/A   Mostly Cloudy
7:53 AM 48.9 °F 39.0 °F 69% 30.02 in 10.0 mi SSE 18.4 mph - N/A   Clear
8:53 AM 52.0 °F 39.0 °F 61% 30.01 in 10.0 mi SSE 16.1 mph - N/A   Clear
9:53 AM 55.9 °F 42.1 °F 60% 30.01 in 10.0 mi SSE 17.3 mph - N/A   Clear
10:53 AM 57.0 °F 37.0 °F 47% 30.00 in 10.0 mi SSE 20.7 mph - N/A   Partly Cloudy
11:53 AM 57.9 °F 37.9 °F 47% 29.99 in 10.0 mi South 18.4 mph - N/A   Mostly Cloudy
12:53 PM 61.0 °F 41.0 °F 48% 29.96 in 10.0 mi SSE 13.8 mph - N/A   Mostly Cloudy
1:53 PM 62.1 °F 39.9 °F 44% 29.93 in 10.0 mi SSE 21.9 mph 32.2 mph N/A   Clear
2:53 PM 62.1 °F 39.9 °F 44% 29.91 in 10.0 mi SSE 19.6 mph 26.5 mph N/A   Clear
3:53 PM 60.1 °F 39.9 °F 47% 29.91 in 10.0 mi SE 20.7 mph 29.9 mph N/A   Clear
4:53 PM 57.0 °F 41.0 °F 55% 29.88 in 10.0 mi SSE 18.4 mph 25.3 mph N/A   Clear
5:53 PM 55.0 °F 39.0 °F 55% 29.87 in 10.0 mi SSE 18.4 mph - N/A   Clear
6:53 PM 53.1 °F 39.9 °F 61% 29.87 in 10.0 mi SSE 11.5 mph - N/A   Clear
7:53 PM 52.0 °F 42.1 °F 69% 29.87 in 10.0 mi SSE 8.1 mph - N/A   Overcast
8:53 PM 52.0 °F 42.1 °F 69% 29.87 in 10.0 mi SE 11.5 mph - N/A   Mostly Cloudy
9:53 PM 52.0 °F 43.0 °F 71% 29.85 in 10.0 mi SE 17.3 mph - 0.00 in Rain Light Rain
10:53 PM 48.9 °F 43.0 °F 80% 29.86 in 3.0 mi South 23.0 mph 31.1 mph 0.08 in Rain Heavy Rain
11:53 PM 48.0 °F 45.0 °F 89% 29.82 in 6.0 mi SSE 17.3 mph 23.0 mph 0.17 in Rain Light Rain